Henderson, KY

3:03 AM CST on December 11, 2019 (GMT -0600)
Henderson City-County

Weather History for KEHR - October, 2019

Change the Weather History Date:

Saturday, October 19, 2019

  Actual Average Record
Temperature  
Mean Temperature 55 °F -  
Max Temperature 73 °F 65 °F 90 °F (1953)
Min Temperature 37 °F 43 °F 27 °F (1992)
Degree Days  
Heating Degree Days 10    
Growing Degree Days 5 (Base 50)    
Moisture  
Dew Point 46 °F    
Average Humidity 69    
Maximum Humidity 93    
Minimum Humidity 35    
Precipitation  
Precipitation 0.00 in - - ()
Sea Level Pressure  
Sea Level Pressure 29.85 in    
Wind  
Wind Speed 5 mph (SSE)    
Max Wind Speed 13 mph    
Max Gust Speed -    
Visibility 10 miles    
Events      
Averages and records for this station are not official NWS values.
T = Trace of Precipitation, MM = Missing Value Source: NWS Daily Summary

Daily Weather History Graph

Daily Weather History Graph

Search for Another Location

Airport or City:

Astronomy

Oct. 19, 2019 Rise Set
Actual Time 7:02 AM CDT 6:08 PM CDT
Civil Twilight 6:36 AM CDT 6:34 PM CDT
Nautical Twilight 6:05 AM CDT 7:05 PM CDT
Astronomical Twilight 5:35 AM CDT 7:35 PM CDT
Moon 10:21 PM CDT (10/19) 12:30 PM CDT (10/19)
Length of Visible Light 11h 58m
Length of Day
11h 05m
Waning Gibbous, 69% of the Moon is Illuminated
Oct 19
Waning Gibbous
Oct 21
Last Quarter
Oct 27
New
Nov 4
First Quarter
Nov 12
Full

Hourly Weather History & Observations

Time (CDT) Temp. Windchill Dew Point Humidity Pressure Visibility Wind Dir Wind Speed Gust Speed Precip Events Conditions
12:56 AM 46.0 °F 43.9 °F 39.9 °F 79% 29.90 in 10.0 mi East 4.6 mph - N/A   Clear
1:56 AM 46.0 °F 44.8 °F 39.0 °F 76% 29.90 in 10.0 mi East 3.5 mph - N/A   Clear
2:56 AM 39.9 °F 37.8 °F 37.9 °F 93% 29.91 in 10.0 mi ENE 3.5 mph - N/A   Clear
3:56 AM 42.1 °F 39.2 °F 39.0 °F 89% 29.90 in 10.0 mi East 4.6 mph - N/A   Clear
4:56 AM 39.9 °F 37.8 °F 37.9 °F 93% 29.92 in 10.0 mi East 3.5 mph - N/A   Clear
5:56 AM 37.9 °F 35.5 °F 36.0 °F 93% 29.92 in 10.0 mi East 3.5 mph - N/A   Clear
6:56 AM 39.0 °F - 37.0 °F 93% 29.91 in 10.0 mi Calm Calm - N/A   Clear
7:56 AM 44.1 °F 42.5 °F 39.9 °F 85% 29.92 in 10.0 mi Variable 3.5 mph - N/A   Clear
9:56 AM 57.9 °F - 45.0 °F 62% 29.91 in 10.0 mi SE 6.9 mph - N/A   Clear
10:56 AM 66.0 °F - 46.0 °F 48% 29.90 in 10.0 mi SSW 11.5 mph - N/A   Clear
11:56 AM 69.1 °F - 46.0 °F 44% 29.88 in 10.0 mi South 10.4 mph - N/A   Clear
12:56 PM 70.0 °F - 46.9 °F 44% 29.83 in 10.0 mi Variable 6.9 mph - N/A   Clear
1:56 PM 72.0 °F - 45.0 °F 38% 29.80 in 10.0 mi Calm Calm - N/A   Clear
2:56 PM 73.9 °F - 45.0 °F 35% 29.78 in 10.0 mi SSW 6.9 mph - N/A   Clear
3:56 PM 73.9 °F - 46.0 °F 37% 29.76 in 10.0 mi South 10.4 mph - N/A   Clear
4:56 PM 72.0 °F - 48.9 °F 44% 29.76 in 10.0 mi SSW 12.7 mph - N/A   Clear
5:56 PM 68.0 °F - 51.1 °F 55% 29.76 in 10.0 mi SSE 5.8 mph - N/A   Clear
6:56 PM 61.0 °F - 51.1 °F 70% 29.78 in 10.0 mi Calm Calm - N/A   Clear
7:56 PM 63.0 °F - 53.1 °F 70% 29.78 in 10.0 mi South 5.8 mph - N/A   Mostly Cloudy
8:56 PM 61.0 °F - 54.0 °F 78% 29.80 in 10.0 mi South 5.8 mph - N/A   Partly Cloudy
9:56 PM 60.1 °F - 55.0 °F 83% 29.81 in 10.0 mi South 4.6 mph - N/A   Clear
10:56 PM 57.9 °F - 55.0 °F 90% 29.82 in 10.0 mi SW 3.5 mph - N/A   Clear
11:56 PM 57.9 °F - 55.0 °F 90% 29.81 in 10.0 mi South 4.6 mph - N/A   Mostly Cloudy